Radiation Dose at Monitoring Post of Fukushima Daini Nuclear Power Station
Date,Time,MP-1(microSv/h),MP-2(microSv/h),MP-3(microSv/h),MP-4(microSv/h),MP-5(microSv/h),MP-6(microSv/h),MP-7(microSv/h),Wind Direction,Wind Velocity(m/s),Rain
2014/10/09,00:00,0.624,0.432,0.661,0.599,0.597,0.272,0.239,south-southwest,2.3,No
2014/10/09,00:10,0.622,0.431,0.662,0.600,0.596,0.273,0.239,south-southwest,3.0,No
2014/10/09,00:20,0.624,0.432,0.662,0.600,0.596,0.270,0.239,south-southwest,2.1,No
2014/10/09,00:30,0.624,0.433,0.662,0.601,0.596,0.272,0.238,south-southwest,2.5,No
2014/10/09,00:40,0.622,0.432,0.662,0.601,0.597,0.271,0.239,south-southwest,3.0,No
2014/10/09,00:50,0.622,0.433,0.662,0.601,0.597,0.273,0.240,south-southwest,2.9,No
2014/10/09,01:00,0.625,0.431,0.660,0.601,0.597,0.272,0.239,south-southwest,3.5,No
2014/10/09,01:10,0.625,0.431,0.662,0.601,0.596,0.272,0.237,south,2.7,No
2014/10/09,01:20,0.625,0.433,0.663,0.601,0.596,0.274,0.239,south-southwest,2.2,No
2014/10/09,01:30,0.623,0.431,0.663,0.601,0.596,0.271,0.237,south-southwest,2.6,No
2014/10/09,01:40,0.624,0.432,0.661,0.602,0.596,0.273,0.239,south,1.0,No
2014/10/09,01:50,0.625,0.432,0.663,0.601,0.596,0.271,0.239,-,CALM,No
2014/10/09,02:00,0.624,0.433,0.662,0.600,0.595,0.273,0.239,south,0.6,No
2014/10/09,02:10,0.623,0.433,0.662,0.603,0.596,0.272,0.239,south-southwest,2.2,No
2014/10/09,02:20,0.624,0.432,0.661,0.600,0.595,0.271,0.238,southwest,1.9,No
2014/10/09,02:30,0.623,0.432,0.663,0.600,0.595,0.270,0.238,southwest,1.7,No
2014/10/09,02:40,0.624,0.431,0.662,0.602,0.598,0.272,0.239,southwest,1.2,No
2014/10/09,02:50,0.624,0.434,0.663,0.602,0.593,0.272,0.238,south-southwest,1.9,No
2014/10/09,03:00,0.624,0.433,0.663,0.599,0.596,0.272,0.237,south-southwest,1.6,No
2014/10/09,03:10,0.624,0.433,0.663,0.600,0.597,0.272,0.239,southwest,2.2,No
2014/10/09,03:20,0.625,0.431,0.661,0.600,0.597,0.271,0.238,west-southwest,1.1,No
2014/10/09,03:30,0.625,0.432,0.663,0.600,0.597,0.272,0.239,south-southwest,1.1,No
2014/10/09,03:40,0.624,0.432,0.662,0.600,0.596,0.272,0.239,southwest,0.5,No
2014/10/09,03:50,0.622,0.430,0.661,0.600,0.596,0.272,0.239,-,CALM,No
2014/10/09,04:00,0.625,0.433,0.661,0.602,0.597,0.272,0.238,southwest,0.5,No
2014/10/09,04:10,0.624,0.432,0.663,0.601,0.597,0.270,0.238,south-southwest,0.6,No
2014/10/09,04:20,0.622,0.433,0.663,0.600,0.598,0.273,0.239,south-southeast,0.9,No
2014/10/09,04:30,0.622,0.433,0.664,0.600,0.595,0.272,0.237,south-southeast,0.7,No
2014/10/09,04:40,0.623,0.432,0.663,0.602,0.596,0.272,0.239,-,CALM,No
2014/10/09,04:50,0.622,0.434,0.665,0.601,0.597,0.272,0.238,-,CALM,No
2014/10/09,05:00,0.624,0.432,0.662,0.602,0.597,0.271,0.237,-,CALM,No
2014/10/09,05:10,0.622,0.432,0.665,0.599,0.596,0.272,0.238,-,CALM,No
2014/10/09,05:20,0.624,0.434,0.663,0.601,0.597,0.271,0.238,-,CALM,No
2014/10/09,05:30,0.624,0.431,0.660,0.601,0.596,0.273,0.238,-,CALM,No
2014/10/09,05:40,0.623,0.432,0.660,0.599,0.596,0.270,0.239,-,CALM,No
2014/10/09,05:50,0.624,0.432,0.663,0.601,0.596,0.273,0.238,-,CALM,No
2014/10/09,06:00,0.625,0.433,0.663,0.601,0.597,0.272,0.238,-,CALM,No
2014/10/09,06:10,0.624,0.434,0.665,0.601,0.595,0.272,0.237,north-northeast,0.6,No
2014/10/09,06:20,0.623,0.434,0.662,0.601,0.596,0.272,0.239,-,CALM,Yes
2014/10/09,06:30,0.625,0.432,0.663,0.601,0.598,0.271,0.239,northwest,0.5,Yes
2014/10/09,06:40,0.624,0.434,0.663,0.602,0.597,0.272,0.240,northwest,1.5,No
2014/10/09,06:50,0.627,0.435,0.663,0.602,0.597,0.273,0.239,-,CALM,No
2014/10/09,07:00,0.627,0.434,0.663,0.601,0.597,0.274,0.238,north-northwest,0.7,No
2014/10/09,07:10,0.624,0.433,0.663,0.602,0.595,0.273,0.239,northeast,1.4,No
2014/10/09,07:20,0.627,0.434,0.665,0.601,0.599,0.272,0.240,north,1.3,No
2014/10/09,07:30,0.627,0.432,0.664,0.604,0.598,0.272,0.240,north,0.7,No
2014/10/09,07:40,0.625,0.435,0.665,0.605,0.596,0.273,0.239,north-northeast,1.2,No
2014/10/09,07:50,0.625,0.434,0.665,0.602,0.598,0.273,0.241,north-northeast,1.5,No
2014/10/09,08:00,0.625,0.434,0.664,0.600,0.597,0.272,0.238,north-northeast,1.6,Yes
2014/10/09,08:10,0.625,0.434,0.665,0.601,0.599,0.273,0.241,north,0.9,No
2014/10/09,08:20,0.624,0.434,0.666,0.601,0.596,0.272,0.239,north,2.1,No
2014/10/09,08:30,0.624,0.434,0.663,0.602,0.597,0.271,0.238,north,1.7,No
2014/10/09,08:40,0.626,0.435,0.666,0.603,0.598,0.271,0.241,north-northwest,1.4,No
2014/10/09,08:50,0.625,0.435,0.666,0.602,0.597,0.273,0.239,west-northwest,1.4,No
2014/10/09,09:00,0.625,0.433,0.666,0.605,0.598,0.273,0.240,north,1.2,No
2014/10/09,09:10,0.625,0.435,0.665,0.605,0.598,0.271,0.240,north-northwest,1.6,No
2014/10/09,09:20,0.626,0.435,0.663,0.603,0.599,0.272,0.238,northwest,0.8,No
2014/10/09,09:30,0.625,0.436,0.665,0.605,0.599,0.270,0.239,west-northwest,0.7,No
2014/10/09,09:40,0.626,0.436,0.666,0.605,0.599,0.273,0.240,-,CALM,No
2014/10/09,09:50,0.628,0.437,0.665,0.604,0.598,0.273,0.237,-,CALM,No
2014/10/09,10:00,0.628,0.437,0.664,0.607,0.600,0.272,0.238,-,CALM,No
2014/10/09,10:10,0.631,0.439,0.665,0.606,0.602,0.270,0.239,east-northeast,1.3,No
2014/10/09,10:20,0.630,0.439,0.667,0.610,0.603,0.272,0.239,east-northeast,0.7,No
2014/10/09,10:30,0.632,0.439,0.666,0.610,0.603,0.273,0.238,east,0.8,No
2014/10/09,10:40,0.631,0.439,0.666,0.612,0.602,0.271,0.238,east-northeast,2.1,No
2014/10/09,10:50,0.632,0.441,0.668,0.615,0.604,0.272,0.240,northeast,1.5,No
2014/10/09,11:00,0.634,0.440,0.668,0.614,0.603,0.271,0.240,northeast,1.9,No
2014/10/09,11:10,0.634,0.441,0.667,0.618,0.605,0.273,0.239,southeast,1.9,No
2014/10/09,11:20,0.637,0.441,0.669,0.620,0.605,0.273,0.239,northeast,2.2,No
2014/10/09,11:30,0.636,0.439,0.669,0.618,0.604,0.273,0.239,east-northeast,2.4,No
2014/10/09,11:40,0.636,0.438,0.670,0.620,0.605,0.272,0.239,east-northeast,1.6,No
2014/10/09,11:50,0.638,0.442,0.669,0.616,0.603,0.272,0.238,east-northeast,2.8,No
2014/10/09,12:00,0.636,0.441,0.671,0.619,0.603,0.271,0.237,east-northeast,2.8,No
2014/10/09,12:10,0.636,0.441,0.670,0.621,0.601,0.273,0.240,east,2.6,No
2014/10/09,12:20,0.637,0.441,0.672,0.621,0.606,0.274,0.241,east,1.8,No
2014/10/09,12:30,0.639,0.440,0.673,0.617,0.600,0.273,0.240,east,2.1,No
2014/10/09,12:40,0.638,0.439,0.671,0.620,0.604,0.272,0.237,east,1.4,No
2014/10/09,12:50,0.637,0.438,0.673,0.618,0.603,0.272,0.238,southeast,1.6,No
2014/10/09,13:00,0.636,0.438,0.672,0.619,0.602,0.273,0.239,east,1.4,No
2014/10/09,13:10,0.636,0.437,0.670,0.618,0.603,0.273,0.239,east,1.0,No
2014/10/09,13:20,0.636,0.438,0.669,0.619,0.602,0.272,0.240,east,1.1,No
2014/10/09,13:30,0.636,0.439,0.668,0.620,0.601,0.272,0.239,east-southeast,1.2,No
2014/10/09,13:40,0.634,0.437,0.668,0.617,0.600,0.272,0.239,east-southeast,1.4,No
2014/10/09,13:50,0.635,0.439,0.669,0.617,0.601,0.272,0.239,southeast,1.2,No
2014/10/09,14:00,0.636,0.439,0.668,0.619,0.601,0.272,0.241,south-southeast,0.8,No
2014/10/09,14:10,0.636,0.437,0.669,0.618,0.601,0.272,0.239,south-southeast,1.2,No
2014/10/09,14:20,0.635,0.439,0.669,0.617,0.602,0.273,0.239,south-southeast,1.6,No
2014/10/09,14:30,0.634,0.438,0.663,0.619,0.603,0.272,0.241,south-southeast,2.3,No
2014/10/09,14:40,0.634,0.438,0.669,0.617,0.600,0.271,0.239,south-southeast,2.5,No
2014/10/09,14:50,0.634,0.438,0.668,0.618,0.593,0.271,0.241,south,3.6,No
2014/10/09,15:00,0.635,0.439,0.666,0.618,0.600,0.273,0.240,south,5.6,No
2014/10/09,15:10,0.636,0.439,0.668,0.617,0.600,0.273,0.240,south,4.7,No
2014/10/09,15:20,0.635,0.440,0.667,0.614,0.600,0.270,0.241,south,4.2,No
2014/10/09,15:30,0.635,0.438,0.667,0.615,0.599,0.272,0.240,south,4.7,No
2014/10/09,15:40,0.632,0.439,0.667,0.614,0.600,0.272,0.241,south,5.3,No
2014/10/09,15:50,0.632,0.438,0.667,0.615,0.601,0.274,0.240,south,5.6,No
2014/10/09,16:00,0.632,0.440,0.667,0.614,0.600,0.272,0.240,south,6.4,No
2014/10/09,16:10,0.632,0.439,0.669,0.612,0.601,0.271,0.241,south,6.7,No
2014/10/09,16:20,0.632,0.438,0.668,0.614,0.601,0.273,0.239,south,5.7,No
2014/10/09,16:30,0.630,0.439,0.670,0.613,0.599,0.271,0.240,south,6.1,No
2014/10/09,16:40,0.630,0.438,0.668,0.613,0.600,0.273,0.239,south-southwest,5.3,No
2014/10/09,16:50,0.628,0.437,0.668,0.613,0.600,0.272,0.241,south-southwest,6.2,No
2014/10/09,17:00,0.628,0.437,0.665,0.610,0.600,0.273,0.240,south-southwest,6.8,No
2014/10/09,17:10,0.627,0.434,0.668,0.611,0.599,0.273,0.240,south-southwest,7.4,No
2014/10/09,17:20,0.626,0.437,0.667,0.610,0.597,0.272,0.239,south-southwest,7.8,No
2014/10/09,17:30,0.629,0.436,0.665,0.608,0.600,0.274,0.242,south-southwest,7.9,No
2014/10/09,17:40,0.627,0.437,0.663,0.608,0.597,0.273,0.240,south-southwest,7.9,No
2014/10/09,17:50,0.624,0.434,0.665,0.606,0.597,0.276,0.241,south-southwest,7.8,No
2014/10/09,18:00,0.623,0.435,0.667,0.606,0.597,0.273,0.240,south-southwest,8.1,No
2014/10/09,18:10,0.623,0.435,0.664,0.605,0.599,0.275,0.241,south-southwest,7.3,No
2014/10/09,18:20,0.623,0.433,0.667,0.606,0.599,0.271,0.240,south-southwest,7.7,No
2014/10/09,18:30,0.622,0.435,0.665,0.608,0.596,0.273,0.241,south-southwest,8.1,No
2014/10/09,18:40,0.623,0.433,0.663,0.603,0.596,0.272,0.240,south-southwest,7.4,No
2014/10/09,18:50,0.621,0.434,0.662,0.602,0.596,0.274,0.241,south-southwest,7.3,No
2014/10/09,19:00,0.622,0.435,0.664,0.605,0.595,0.273,0.240,south-southwest,7.1,No
2014/10/09,19:10,0.622,0.435,0.665,0.603,0.595,0.274,0.240,south-southwest,6.6,No
2014/10/09,19:20,0.622,0.434,0.661,0.601,0.597,0.273,0.241,south-southwest,6.8,No
2014/10/09,19:30,0.624,0.433,0.662,0.602,0.597,0.273,0.240,south-southwest,6.2,No
2014/10/09,19:40,0.624,0.434,0.666,0.600,0.596,0.272,0.240,south-southwest,6.0,No
2014/10/09,19:50,0.625,0.435,0.664,0.603,0.596,0.274,0.239,south-southwest,5.2,No
2014/10/09,20:00,0.625,0.432,0.665,0.603,0.596,0.274,0.240,south-southwest,5.6,No
2014/10/09,20:10,0.624,0.435,0.663,0.603,0.595,0.275,0.242,south-southwest,6.8,No
2014/10/09,20:20,0.626,0.433,0.663,0.603,0.596,0.272,0.241,south-southwest,8.2,No
2014/10/09,20:30,0.625,0.434,0.663,0.603,0.597,0.274,0.240,south-southwest,8.7,No
2014/10/09,20:40,0.624,0.434,0.663,0.603,0.595,0.273,0.240,south-southwest,8.5,No
2014/10/09,20:50,0.623,0.434,0.665,0.604,0.596,0.274,0.239,south-southwest,9.6,No
2014/10/09,21:00,0.623,0.433,0.665,0.604,0.596,0.274,0.242,south-southwest,9.0,No
2014/10/09,21:10,0.623,0.435,0.665,0.603,0.597,0.273,0.241,south-southwest,7.4,No
2014/10/09,21:20,0.622,0.435,0.664,0.603,0.594,0.274,0.241,southwest,10.1,No
2014/10/09,21:30,0.626,0.437,0.664,0.604,0.597,0.273,0.240,south-southwest,9.7,No
2014/10/09,21:40,0.625,0.435,0.666,0.603,0.596,0.274,0.241,south-southwest,11.1,No
2014/10/09,21:50,0.624,0.435,0.667,0.603,0.597,0.273,0.240,south-southwest,10.5,No
2014/10/09,22:00,0.624,0.434,0.666,0.604,0.597,0.274,0.240,south-southwest,9.8,No
2014/10/09,22:10,0.625,0.434,0.667,0.603,0.598,0.272,0.240,south-southwest,10.1,No
2014/10/09,22:20,0.626,0.434,0.666,0.604,0.596,0.274,0.241,south-southwest,9.7,No
2014/10/09,22:30,0.625,0.435,0.665,0.603,0.595,0.272,0.241,south-southwest,9.8,No
2014/10/09,22:40,0.626,0.435,0.665,0.602,0.598,0.273,0.241,south-southwest,9.8,No
2014/10/09,22:50,0.623,0.435,0.666,0.601,0.598,0.274,0.242,south-southwest,9.7,No
2014/10/09,23:00,0.626,0.435,0.666,0.603,0.598,0.273,0.240,south-southwest,10.0,No
2014/10/09,23:10,0.625,0.434,0.666,0.604,0.596,0.273,0.240,south-southwest,11.0,No
2014/10/09,23:20,0.624,0.437,0.667,0.602,0.597,0.273,0.241,south-southwest,10.1,No
2014/10/09,23:30,0.624,0.434,0.666,0.603,0.597,0.273,0.241,south-southwest,10.6,No
2014/10/09,23:40,0.625,0.436,0.666,0.603,0.595,0.272,0.240,south-southwest,9.8,No
2014/10/09,23:50,0.622,0.433,0.666,0.603,0.598,0.274,0.241,south-southwest,11.2,No
